CW8593 Weather Reports


Display with metric or nautical units.
time (UTC)temp
F
wind
direction
speed
MPH
gust
MPH
rain 1hr
in
rain 24hr
in
rain mn
in
humidity
%
barometer
mb
20181219110250 62 291 6.0 15.0 0.00 0.00 0.00 55 1017.8
20181219105350 62 292 7.0 15.0 0.00 0.00 0.00 56 1017.9
20181219104450 61 289 8.0 17.0 0.00 0.00 0.00 57 1018.0
20181219103550 61 301 4.0 16.0 0.00 0.00 0.00 57 1018.2
20181219102650 60 335 3.0 9.0 0.00 0.00 0.00 63 1018.3
20181219101750 60 337 2.0 9.0 0.00 0.00 0.00 62 1018.3
20181219100850 59 41 0.0 5.0 0.00 0.00 0.00 67 1018.5
20181219095951 60 39 1.0 4.0 0.00 0.00 0.00 68 1018.5
20181219095050 58 38 1.0 4.0 0.00 0.00 0.00 72 1018.5
20181219094150 57 35 1.0 4.0 0.00 0.00 0.00 75 1018.5
20181219093250 57 30 1.0 3.0 0.00 0.00 0.00 75 1018.6
20181219092350 56 30 0.0 3.0 0.00 0.00 0.00 77 1018.6
20181219091450 55 30 1.0 3.0 0.00 0.00 0.00 80 1018.6
20181219090550 54 30 1.0 4.0 0.00 0.00 0.00 83 1018.5
20181219085650 53 29 1.0 4.0 0.00 0.00 0.00 84 1018.5
20181219084750 53 319 1.0 5.0 0.00 0.00 0.00 86 1018.4
20181219083850 52 281 1.0 4.0 0.00 0.00 0.00 87 1018.2
20181219082950 52 280 1.0 4.0 0.00 0.00 0.00 88 1018.0
20181219082050 52 280 0.0 2.0 0.00 0.00 0.00 89 1018.0
20181219081150 51 0 0.0 0.0 0.00 0.00 0.00 90 1018.0
20181219080250 51 280 0.0 1.0 0.00 0.00 0.00 90 1017.9
20181219075350 51 280 0.0 2.0 0.00 0.00 0.00 90 1017.7
20181219074450 51 0 0.0 0.0 0.00 0.00 0.00 90 1017.7
20181219073550 51 0 0.0 0.0 0.00 0.00 0.00 90 1017.8
20181219072650 51 0 0.0 0.0 0.00 0.00 0.00 90 1017.6
20181219071751 51 0 0.0 0.0 0.00 0.00 0.00 90 1017.7
20181219070850 51 0 0.0 0.0 0.00 0.00 0.00 89 1017.6
20181219065950 51 0 0.0 0.0 0.00 0.00 0.00 89 1017.5
20181219065050 51 0 0.0 0.0 0.00 0.00 0.00 89 1017.6
20181219064150 51 280 1.0 3.0 0.00 0.00 0.00 89 1017.6
20181219063250 51 280 1.0 4.0 0.00 0.00 0.00 88 1017.6
20181219062350 51 280 0.0 3.0 0.00 0.00 0.00 88 1017.5
20181219061450 51 280 0.0 3.0 0.00 0.00 0.00 87 1017.5
20181219060550 51 280 0.0 1.0 0.00 0.00 0.00 87 1017.6
20181219055650 50 280 1.0 1.0 0.00 0.00 0.00 87 1017.4
20181219054750 50 280 1.0 4.0 0.00 0.00 0.00 88 1017.5
20181219053850 51 280 1.0 3.0 0.00 0.00 0.00 88 1017.3
20181219052950 51 280 0.0 3.0 0.00 0.00 0.00 88 1017.2
20181219052050 50 280 0.0 1.0 0.00 0.00 0.00 88 1017.2
20181219051150 51 0 0.0 0.0 0.00 0.00 0.00 88 1017.2
20181219050250 51 280 1.0 2.0 0.00 0.00 0.00 88 1017.1
20181219045350 51 280 2.0 4.0 0.00 0.00 0.00 88 1017.3
20181219044450 54 280 3.0 6.0 0.00 0.00 0.00 87 1017.3
20181219043550 53 282 1.0 5.0 0.00 0.00 0.00 89 1017.5
20181219042650 51 291 0.0 3.0 0.00 0.00 0.00 90 1017.5
20181219041750 51 0 0.0 0.0 0.00 0.00 0.00 89 1017.6
20181219040850 51 291 1.0 2.0 0.00 0.00 0.00 89 1017.7
20181219035950 51 291 1.0 3.0 0.00 0.00 0.00 89 1017.7
20181219035050 51 291 0.0 2.0 0.00 0.00 0.00 89 1017.5
20181219034150 51 0 0.0 0.0 0.00 0.00 0.00 88 1017.5
20181219033250 51 0 0.0 0.0 0.00 0.00 0.00 88 1017.6
20181219032350 52 0 0.0 0.0 0.00 0.00 0.00 87 1018.0
20181219031450 53 0 0.0 0.0 0.00 0.00 0.00 86 1018.2
20181219030549 54 291 1.0 2.0 0.00 0.00 0.00 85 1018.3
20181219025650 53 291 1.0 4.0 0.00 0.00 0.00 87 1018.4
20181219024749 52 291 1.0 3.0 0.00 0.00 0.00 89 1018.7
20181219022949 52 291 1.0 3.0 0.00 0.00 0.00 89 1018.4
20181219022049 51 291 0.0 2.0 0.00 0.00 0.00 89 1018.4
20181219021150 51 0 0.0 0.0 0.00 0.00 0.00 89 1018.5
20181219020249 51 0 0.0 0.0 0.00 0.00 0.00 89 1018.5
20181219015350 51 291 0.0 1.0 0.00 0.00 0.00 88 1018.5
20181219014450 52 292 1.0 1.0 0.00 0.00 0.00 88 1018.4
20181219013549 52 291 0.0 3.0 0.00 0.00 0.00 89 1018.7
20181219012649 51 290 0.0 1.0 0.00 0.00 0.00 88 1018.7
20181219011749 52 290 0.0 1.0 0.00 0.00 0.00 87 1018.5
20181219010849 53 0 1.0 0.0 0.00 0.00 0.00 88 1018.9
20181219005949 52 291 1.0 3.0 0.00 0.00 0.00 88 1018.9
20181219005049 51 0 0.0 0.0 0.00 0.00 0.00 88 1018.8
20181219004149 51 291 2.0 2.0 0.00 0.00 0.00 88 1019.2
20181219003249 52 291 3.0 5.0 0.00 0.00 0.00 87 1019.2
20181219002349 51 291 1.0 4.0 0.00 0.00 0.00 87 1018.9
20181219001449 53 291 1.0 2.0 0.00 0.00 0.00 86 1018.9
20181219000549 53 283 1.0 3.0 0.00 0.00 0.00 85 1019.1
20181218235649 53 275 0.0 1.0 0.00 0.00 0.00 84 1019.4
20181218234750 54 275 0.0 1.0 0.00 0.00 0.00 83 1019.5
20181218233849 54 0 0.0 0.0 0.00 0.00 0.00 83 1019.6
20181218232949 54 275 0.0 1.0 0.00 0.00 0.00 82 1019.8
20181218232049 54 275 1.0 1.0 0.00 0.00 0.00 82 1019.9
20181218231149 55 275 1.0 4.0 0.00 0.00 0.00 81 1020.0
20181218230249 55 278 2.0 7.0 0.00 0.00 0.00 81 1020.0
20181218225350 55 281 2.0 7.0 0.00 0.00 0.00 81 1020.3
20181218224449 55 281 1.0 4.0 0.00 0.00 0.00 81 1020.5
20181218223549 55 281 1.0 3.0 0.00 0.00 0.00 82 1020.4
20181218222649 55 281 0.0 1.0 0.00 0.00 0.00 81 1020.3
20181218221749 55 0 0.0 0.0 0.00 0.00 0.00 81 1020.2
20181218220849 55 281 1.0 4.0 0.00 0.00 0.00 80 1020.3
20181218215949 55 281 2.0 4.0 0.00 0.00 0.00 80 1020.4
20181218215049 55 280 2.0 6.0 0.00 0.00 0.00 80 1020.6
20181218214149 55 279 2.0 5.0 0.00 0.00 0.00 80 1020.6
20181218213249 55 279 3.0 5.0 0.00 0.00 0.00 80 1020.6
20181218212349 55 280 4.0 6.0 0.00 0.00 0.00 79 1020.6
20181218211449 55 280 4.0 7.0 0.00 0.00 0.00 79 1020.7
20181218210549 55 280 3.0 9.0 0.00 0.00 0.00 79 1020.6
20181218205649 55 273 3.0 7.0 0.00 0.00 0.00 80 1020.7
20181218204749 55 263 2.0 8.0 0.00 0.00 0.00 80 1020.8
20181218203849 55 279 2.0 5.0 0.00 0.00 0.00 80 1020.7
20181218202949 55 279 2.0 6.0 0.00 0.00 0.00 80 1020.7
20181218202049 55 279 3.0 5.0 0.00 0.00 0.00 80 1020.7
20181218201149 55 276 3.0 7.0 0.00 0.00 0.00 80 1020.7
20181218200249 55 267 4.0 9.0 0.00 0.00 0.00 79 1020.7
20181218195349 55 263 4.0 8.0 0.00 0.00 0.00 79 1020.8
20181218194449 56 254 4.0 9.0 0.00 0.00 0.00 78 1020.8
20181218193549 56 250 4.0 11.0 0.00 0.00 0.00 78 1020.8
20181218192649 56 264 4.0 11.0 0.00 0.00 0.00 78 1020.7
20181218191749 56 259 3.0 10.0 0.00 0.00 0.00 79 1020.8
20181218190849 55 253 3.0 9.0 0.00 0.00 0.00 79 1020.8
20181218185949 55 257 4.0 9.0 0.00 0.00 0.00 79 1020.9
20181218185049 55 256 4.0 11.0 0.00 0.00 0.00 80 1021.1
20181218184149 55 246 4.0 11.0 0.00 0.00 0.00 80 1021.0
20181218183249 55 250 5.0 12.0 0.00 0.00 0.00 80 1020.8
20181218182349 55 248 4.0 14.0 0.00 0.00 0.00 80 1020.8
20181218181449 55 248 3.0 6.0 0.00 0.00 0.00 80 1020.7
20181218180549 55 252 3.0 9.0 0.00 0.00 0.00 80 1020.6
20181218175649 55 252 3.0 9.0 0.00 0.00 0.00 79 1020.5
20181218174752 55 237 3.0 11.0 0.00 0.00 0.00 79 1020.6
20181218173849 55 244 4.0 8.0 0.00 0.00 0.00 79 1020.6
20181218172949 55 245 5.0 12.0 0.00 0.00 0.00 79 1020.7
20181218172049 55 253 4.0 13.0 0.00 0.00 0.00 78 1020.8
20181218171149 54 248 4.0 9.0 0.00 0.00 0.00 78 1020.9
20181218170249 55 256 6.0 13.0 0.00 0.00 0.00 77 1020.9
20181218165349 55 252 4.0 10.0 0.00 0.00 0.00 77 1020.9
20181218164448 55 248 4.0 10.0 0.00 0.00 0.00 76 1020.9
20181218163548 55 252 5.0 18.0 0.00 0.00 0.00 76 1020.9
20181218162649 55 251 4.0 11.0 0.00 0.00 0.00 75 1020.9
20181218161749 55 245 3.0 10.0 0.00 0.00 0.00 75 1021.0
20181218160848 56 252 3.0 9.0 0.00 0.00 0.00 74 1021.0
20181218155948 56 241 3.0 8.0 0.00 0.00 0.00 75 1020.9
20181218155049 56 218 2.0 9.0 0.00 0.00 0.00 75 1020.9
20181218154149 56 217 3.0 6.0 0.00 0.00 0.00 77 1020.8
20181218153248 56 225 5.0 13.0 0.00 0.00 0.00 76 1020.9
20181218152348 57 230 5.0 14.0 0.00 0.00 0.00 75 1020.9
20181218151449 57 221 4.0 12.0 0.00 0.00 0.00 74 1020.8
20181218150548 57 233 5.0 13.0 0.00 0.00 0.00 74 1020.7
20181218145648 57 216 6.0 19.0 0.00 0.00 0.00 73 1020.7
20181218144749 58 221 7.0 19.0 0.00 0.00 0.00 73 1020.7
20181218143849 58 222 7.0 18.0 0.00 0.00 0.00 73 1020.8
20181218142949 58 220 5.0 17.0 0.00 0.00 0.00 72 1020.8
20181218142048 58 235 4.0 13.0 0.00 0.00 0.00 72 1020.9
20181218141148 58 226 6.0 13.0 0.00 0.00 0.00 73 1021.0
20181218140248 58 215 6.0 13.0 0.00 0.00 0.00 73 1021.1
20181218135348 58 211 4.0 13.0 0.00 0.00 0.00 72 1021.1
20181218134448 59 235 5.0 12.0 0.00 0.00 0.00 73 1021.1
20181218133548 58 216 5.0 15.0 0.00 0.00 0.00 74 1021.2
20181218132649 58 220 4.0 15.0 0.00 0.00 0.00 74 1021.5
20181218131748 58 229 2.0 11.0 0.00 0.00 0.00 73 1021.6
20181218130848 58 253 2.0 7.0 0.00 0.00 0.00 73 1021.7
20181218125948 58 249 4.0 10.0 0.00 0.00 0.00 73 1021.9
20181218125048 57 224 4.0 11.0 0.00 0.00 0.00 73 1022.0
20181218124149 57 239 5.0 13.0 0.00 0.00 0.00 73 1022.1
20181218123248 57 239 4.0 15.0 0.00 0.00 0.00 73 1022.2
20181218122348 57 244 4.0 9.0 0.00 0.00 0.00 73 1022.4
20181218121448 57 242 4.0 14.0 0.00 0.00 0.00 74 1022.5
20181218120548 56 246 4.0 10.0 0.00 0.00 0.00 73 1022.7
20181218115648 56 258 5.0 11.0 0.00 0.00 0.00 73 1022.8
20181218114748 56 246 5.0 14.0 0.00 0.00 0.00 73 1022.9
20181218113848 56 236 4.0 9.0 0.00 0.00 0.00 73 1023.0
20181218112948 56 253 4.0 9.0 0.00 0.00 0.00 72 1023.1
20181218112048 57 252 4.0 11.0 0.00 0.00 0.00 72 1023.2
20181218111148 57 236 5.0 10.0 0.00 0.00 0.00 72 1023.3